719  
ASUS43 KGRB 092011  
RWRGRB  
 
NORTH-CENTRAL AND NORTHEAST WISCONSIN REGIONAL WEATHER ROUNDUP  
NATIONAL WEATHER SERVICE GREEN BAY WI  
300 PM CDT TUE AUG 09 2022  
 
WIZ005-009-010>012-018-019-092100-  
NORTH CENTRAL WISCONSIN  
 
CITY SKY/WX TMP DP RH WIND PRES REMARKS
 
IRONWOOD SUNNY 80 58 46 SW13 30.06F  
MANITOWISH WTR SUNNY 79 57 47 S8 30.10S  
ARBOR VITAE SUNNY 78 58 50 SW7G13 30.10F  
EAGLE RIVER SUNNY 77 53 42 SW9 30.10F  
LAND O LAKES SUNNY 79 55 43 SW6 30.11F  
RHINELANDER SUNNY 78 57 48 SW12 30.12F  
PHILLIPS SUNNY 76 58 53 SW8 30.11F  
ANTIGO SUNNY 75 58 54 SW7 30.13F  
TOMAHAWK SUNNY 77 56 47 CALM 30.13S  
MERRILL SUNNY 77 58 52 SW9 30.11F  

 
 
WIZ013-073-092100-  
NORTHEAST WISCONSIN  
 
CITY SKY/WX TMP DP RH WIND PRES REMARKS
 
IRON MOUNTAIN SUNNY 82 56 40 SW9 30.07F  
MARINETTE SUNNY 76 57 51 S9 30.10F  
OCONTO SUNNY 75 56 50 S6 30.10F  

 
 
WIZ017-030-035>037-045-092100-  
CENTRAL WISCONSIN  
 
CITY SKY/WX TMP DP RH WIND PRES REMARKS
 
MEDFORD SUNNY 73 60 61 SW7 30.13F  
WAUSAU SUNNY 79 56 45 SW10 30.11F  
MOSINEE MOSUNNY 75 59 57 SW7 30.14F  
MARSHFIELD SUNNY 77 58 51 W8 30.12F  
WISC RAPIDS SUNNY 79 58 48 MISG 30.12F  
STEVENS POINT SUNNY 79 52 38 W9 30.12F  
WAUPACA MOSUNNY 80 58 47 CALM 30.11F  
SHAWANO MOSUNNY 78 60 52 SW5 30.10F  
CLINTONVILLE MOSUNNY 77 59 52 SW8 30.12F  
WAUTOMA SUNNY 79 59 50 VRB3 30.11F  

 
 
WIZ038-039-048-051-092100-  
FOX VALLEY  
 
CITY SKY/WX TMP DP RH WIND PRES REMARKS
 
NWS GREEN BAY SUNNY 79 57 46 CALM 30.11F  
APPLETON MOSUNNY 73 57 56 CALM 30.11F  
OSHKOSH SUNNY 76 58 53 SE5 30.12F  
FOND DU LAC SUNNY 77 55 46 W5 30.12F  

 
 
WIZ022-050-052-092100-  
EAST CENTRAL WISCONSIN  
 
CITY SKY/WX TMP DP RH WIND PRES REMARKS
 
EPHRAIM FAIR 74 54 50 W3 30.10F  
WASHINGTON ISL FAIR 70 61 72 S10 30.10F  
STURGEON BAY CLOUDY 74 55 51 NW8 30.12F  
MANITOWOC SUNNY 70 58 65 SE9 30.13F  
SHEBOYGAN SUNNY 76 59 55 MISG 30.12F  

 
 
LMZ563-521-522-541>543-092100-  
LAKESHORE  
 
STATION/POSITION TIME TEMP WIND PRES VSBY WAVE
 
AIR SEA DIR/SP/G HT/PER  
(UTC) (F) (DEG/KT/KT) (MB) (MI) (FT/S)  
SHEBOYGAN LKSHOR 2000 65 130/ 6/ 7 1020.3F  
KEWAUNEE LKSHORE 1924 160/ 8/ 10 1018.7  
NORTHPORT PIER 1900 68 120/ 10/ 15 1020.3  
N MID LAKE BUOY 1950 67 210/ 10/ 12 1019.8S  
CHAMBERS ISLAND 1940 73 140/ 6/ 9 N/A  
GREEN BAY WEST 1924 75 40/ 1/ 5 1018.4  
MENOMINEE LKSHOR 1924 71 73 160/ 9/ 11 1018.3  

 
 
 
CLICK HERE TO GO TO PREVIOUS BULLETINS.

The Nexlab WI Page Main Text Page